{"data":{"norad_id":49186,"epoch":"2026-05-25T00:10:52.936896Z","epoch_age_seconds":74326,"freshness":"FRESH","line1":"1 49186U 21083A   26145.00755714  .00000129  00000+0  31844-3 0  9993","line2":"2 49186  87.8929 324.8584 0001994  92.0296 268.1062 13.13469342227886","mean_motion":13.13469342,"eccentricity":0.0001994,"inclination_deg":87.8929,"raan_deg":324.8584,"arg_perigee_deg":92.0296,"mean_anomaly_deg":268.1062,"bstar":0.00031844,"rev_number":22788,"period_min":109.63331643564,"perigee_km":1208.2549058302,"apogee_km":1211.2809623179,"semimajor_km":7587.904934074,"source":"CELESTRAK","updated_at":"2026-05-25T13:38:22.488481Z"}}